Satellite: RS-38 Catalog number: 35869 Epoch time: 11237.17701287 Element set: 653 Inclination: 098.6964 deg RA of node: 291.4215 deg Eccentricity: 0.0004373 Arg of perigee: 181.7024 deg Mean anomaly: 178.4114 deg Mean motion: 14.22019414 rev/day Decay rate: 1.77e-06 rev/day^2 Epoch rev: 10040 Checksum: 293
Satellite: ARISSAT1 Catalog number: 37772 Epoch time: 11237.82207817 Element set: 66 Inclination: 051.6383 deg RA of node: 170.1645 deg Eccentricity: 0.0013542 Arg of perigee: 124.5374 deg Mean anomaly: 282.3294 deg Mean motion: 15.61525208 rev/day Decay rate: 2.8451e-04 rev/day^2 Epoch rev: 336 Checksum: 283
/EX
participants (1)
-
Ray Hoad